Regional Weather Roundup
Issued by NWS

Home | Current Version | Previous Version | Graphics & Text | Print | Product List | Glossary On
Versions: 1 2 3 4 5 6 7 8 9 10 11 12 13 14 15 16 17 18 19 20 21 22 23 24 25 26 27 28 29 30 31 32 33 34 35 36 37 38 39 40 41 42 43 44 45 46 47 48 49 50
000
ASUS43 KDMX 070707
RWRIA

WEATHER ROUNDUP FOR IOWA
NATIONAL WEATHER SERVICE DES MOINES IA
200 AM CDT THU MAY 07 2015

NOTE: "FAIR" INDICATES FEW OR NO CLOUDS BELOW 12,000 FEET WITH NO
SIGNIFICANT WEATHER AND/OR OBSTRUCTIONS TO VISIBILITY.

* - THESE STATIONS ARE NOT NWS STATIONS...THUS NOT UNDER NWS
QUALITY CONTROL.  THEY ALSO DO NOT REPORT WEATHER SUCH
AS PRECIPITATION OR FOG.

IAZ001>003-012>014-020>022-031>034-043>046-070800-
   NORTHWEST IOWA

CITY           SKY/WX    TMP DP  RH WIND       PRES   REMARKS
CARROLL *      CLOUDY    70  57  64 S30G38    29.76S
CHEROKEE *     LGT RAIN  61  61 100 S25G31    29.71F
DENISON *      LGT RAIN  63  63 100 S13       29.73F
LE MARS *      CLOUDY    63  61  94 S22G37    29.65F
ORANGE CITY *  LGT RAIN  61  57  88 SE22G31   29.66S
SHELDON *      CLOUDY    63 N/A N/A SE22G30   29.66F
SIOUX CITY     LGT RAIN  63  58  83 S22       29.67R
SPENCER        LGT RAIN  63  60  90 SE25G37   29.73F
STORM LAKE *   CLOUDY    63  61  94 S20G28    29.76F FOG
$$

IAZ055>058-069>071-079>083-090>094-070800-
   SOUTHWEST IOWA

CITY           SKY/WX    TMP DP  RH WIND       PRES   REMARKS
ATLANTIC *     CLOUDY    70  57  64 S18G29    29.78R
AUDUBON *      CLOUDY    66  59  77 S14G21    29.79R
CLARINDA *     PTCLDY    70  57  64 S20G26    29.78S
COUNCIL BLFS * RAIN      61  61 100 S12       29.79S
CRESTON *      CLEAR     66  57  72 SE21G30   29.80F
HARLAN  *      LGT RAIN  63  63 100 SW21G30   29.82R
LAMONI         MOCLDY    69  56  62 SE14G23   29.85F
RED OAK *      CLOUDY    68  57  68 SW10G21   29.78R
SHENANDOAH *   CLOUDY    70  57  64 S29G38    29.73F
$$

IAZ047>049-059>061-072>074-084-070800-
   CENTRAL IOWA

CITY           SKY/WX    TMP DP  RH WIND       PRES   REMARKS
AMES           PTCLDY    66  57  72 SE16      29.83F
ANKENY *       CLEAR     68  57  68 S17G24    29.83F
CHARITON *     PTCLDY    68  57  68 S16G24    29.87F
DES MOINES     CLOUDY    70  56  61 S20G26    29.83F
GRINNELL*      PTCLDY    64  57  77 SE14      29.90F
KNOXVILLE *    CLEAR     66  57  72 S13       29.86F
MARSHALLTOWN   PTCLDY    65  59  81 SE16      29.87F
PELLA *        PTCLDY    66  61  82 SE9       29.90S
PERRY *          N/A     68  57  68 S18G25    29.80F
$$

IAZ004>006-015-016-023>025-035-036-070800-
   NORTH CENTRAL IOWA

CITY           SKY/WX    TMP DP  RH WIND       PRES   REMARKS
ALGONA *       MOCLDY    66  55  68 SE22G33   29.78F
CLARION *      CLEAR     64  61  88 SE21G26   29.82F
ESTHERVILLE    CLOUDY    64  58  80 S24G32    29.76F
FORT DODGE *   CLOUDY    66  55  68 SE13G22   29.80F
MASON CITY     PTCLDY    63  59  87 SE17      29.86F
FOREST CITY *  PTCLDY    63  57  82 SE18      29.83F
IOWA FALLS *     N/A     64  59  82 SE16      29.86F
$$

IAZ007>011-017>019-026>030-037>042-050>054-066-070800-
   NORTHEAST IOWA

CITY           SKY/WX    TMP DP  RH WIND       PRES   REMARKS
CEDAR RAPIDS   CLEAR     65  59  81 S12       29.93S
CHARLES CITY * PTCLDY    63  61  94 SE14      29.90S
CLINTON *      PTCLDY    64  55  72 SE12      30.01F
DECORAH *      MOCLDY    63  57  82 SE9G16    29.92S
DUBUQUE        MOCLDY    65  58  78 SE13      29.97F
MONTICELLO *   CLEAR     66  63  88 SE13      29.95F
OELWEIN *      PTCLDY    63  59  88 SE16      29.93S
WATERLOO       PTCLDY    65  58  78 SE14      29.89F
$$

IAZ064-065-067-068-078-070800-
   EAST CENTRAL IOWA

CITY           SKY/WX    TMP DP  RH WIND       PRES   REMARKS
DAVENPORT      PTCLDY    66  54  65 S10       29.98F
IOWA CITY      CLEAR     63  59  87 SE6       29.95
MT. PLEASANT * CLEAR     64  55  72 SE10      29.96S
MUSCATINE *    CLEAR     68  57  68 SE9       29.96S
QUAD CITIES    CLEAR     66  54  65 S8        29.97F
$$

IAZ062-063-075>077-085>089-095>099-070800-
   SOUTHEAST IOWA

CITY           SKY/WX    TMP DP  RH WIND       PRES   REMARKS
BURLINGTON     CLEAR     68  54  60 S9        29.96F
FAIRFIELD *    CLEAR     64  57  77 SE10      29.94S
FORT MADISON * CLEAR     68  55  64 S14       29.97S
KEOKUK *       CLEAR     68  54  60 SE7       29.96R
OSKALOOSA *      N/A     63  57  82 S13       29.92S
CENTERVILLE *  CLEAR     64  57  77 SE13      29.92F
OTTUMWA        PTCLDY    67  58  72 S15       29.91F
WASHINGTON *   CLEAR     64 N/A N/A S9        29.94F
$$

ABBREVIATIONS USED IN REMARKS
   TC - TEMPERATURES IN CELSIUS
  WCI - WIND CHILL INDEX
   HX - HEAT INDEX
  VSB - VISIBILITY
$$




USA.gov is the U.S. government's official web portal to all federal, state and local government web resources and services.